This is the latest recevied weather packets stored in our database for station/object KU9TRY. If no packets are shown the sender has not sent any weather packets the latest 10 day(s).
| Time | Temp. | Humidity | Pressure | Rain* | Wind** | Luminosity | Snow |
|---|---|---|---|---|---|---|---|
| 1777546304 | 9.44° C | 89% | 1015.7 hPa | 0 mm | - | 2 W/m² | - |
| 1777545698 | 10° C | 82% | 1015.6 hPa | 0 mm | - | 1 W/m² | - |
| 1777545395 | 10° C | 83% | 1015.5 hPa | 0 mm | - | 0 W/m² | - |
| 1777545092 | 10° C | 82% | 1015.3 hPa | 0 mm | - | 0 W/m² | - |
| 1777544789 | 10° C | 82% | 1015.4 hPa | 0 mm | - | 0 W/m² | - |
| 1777544485 | 10.56° C | 82% | 1015.6 hPa | 0 mm | - | 0 W/m² | - |
| 1777544181 | 10.56° C | 85% | 1015.5 hPa | 0 mm | - | 0 W/m² | - |
| 1777543879 | 10.56° C | 85% | 1015.5 hPa | 0 mm | - | 0 W/m² | - |
| 1777543575 | 10.56° C | 87% | 1015.7 hPa | 0 mm | - | 0 W/m² | - |
| 1777542967 | 11.11° C | 81% | 1015.6 hPa | 0 mm | - | 0 W/m² | - |
| 1777542663 | 11.11° C | 77% | 1015.3 hPa | 0 mm | - | 0 W/m² | - |
| 1777542360 | 11.67° C | 79% | 1015.5 hPa | 0 mm | - | 0 W/m² | - |
| 1777542056 | 11.11° C | 78% | 1015.2 hPa | 0 mm | - | 0 W/m² | - |
| 1777541754 | 11.11° C | 83% | 1015.2 hPa | 0 mm | - | 0 W/m² | - |
| 1777541450 | 11.11° C | 82% | 1015.3 hPa | 0 mm | - | 0 W/m² | - |
| 1777540844 | 10.56° C | 87% | 1015.3 hPa | 0 mm | - | 0 W/m² | - |
| 1777540542 | 10° C | 89% | 1015 hPa | 0 mm | - | 0 W/m² | - |
| 1777540237 | 10° C | 91% | 1015.3 hPa | 0 mm | - | 0 W/m² | - |
| 1777539932 | 10° C | 89% | 1015.1 hPa | 0 mm | - | 0 W/m² | - |
| 1777539630 | 10° C | 89% | 1015.1 hPa | 0 mm | - | 0 W/m² | - |
| 1777539326 | 10.56° C | 87% | 1015 hPa | 0 mm | - | 0 W/m² | - |
| 1777539023 | 10.56° C | 87% | 1015 hPa | 0 mm | - | 0 W/m² | - |
| 1777538719 | 11.11° C | 84% | 1015 hPa | 0 mm | - | 0 W/m² | - |
| 1777538110 | 11.67° C | 78% | 1015 hPa | 0 mm | - | 0 W/m² | - |
| 1777537502 | 11.67° C | 79% | 1014.7 hPa | 0 mm | - | 0 W/m² | - |
* Rain latest hour (hover to see other rain measurements)
** Current wind speed in m/s (hover to see current wind gust speed)